sat.trackr.live / text

‹ back to catalog

PARUS-6U1

NORAD 68456 · 2026-067AS

PAYLOAD ACTIVE UNKNOWN

§ Identity

Operator
Country
ROC
Launch date
2026-03-30
Launch site
AFWTR
Launch vehicle
Mass (kg)
RCS (m²)

External: N2YO · Heavens-Above · Gunter

§ Orbital elements

Epoch: 2026-05-24T20:15:16.322688Z

Period
94.91 min
Inclination
97.4538°
Eccentricity
0.0006989
Mean motion
15.17230320 rev/d
Perigee alt
509.4 km
Apogee alt
519.0 km
Semi-major
6,892.4 km
B*
2.5635e-4
RAAN
103.5736°
Arg perigee
131.8282°
Mean anomaly
228.3550°
Rev number
839

§ Raw data

PARUS-6U11 68456U 26067AS  26144.84393892  .00005035  00000+0  25635-3 0  99992 68456  97.4538 103.5736 0006989 131.8282 228.3550 15.17230320  8398

JSON: /api/v1/satellites/68456 · /tle

For live sub-satellite position, see the globe view (requires WebGL).

§ Visibility from observer

Set your observer location to see the next 7 days of passes ≥ 10°. The values pass through the URL so the page stays shareable.

No JS? Fill the form by hand. The geolocation button needs JavaScript.

§ Radio — SatNOGS DB

ModeDescriptionDownlinkUplink
FM Mode S - Transmitter - 750kbps 2.402 GHz
GMSK UHF TT&C 437.195 MHz
AFSK V/V Digipeater 1k2 (inactive) 145.825 MHz 145.825 MHz

3 transmitters · refreshed weekly from db.satnogs.org